EW8136 Weather Reports


Display with metric or nautical units.
time (UTC)temp
F
wind
direction
speed
MPH
gust
MPH
rain 1hr
in
rain 24hr
in
rain mn
in
humidity
%
barometer
mb
20191013211720 67 281 0.0 0.0 0.00 0.00 0.00 54 1001.1
20191013211220 67 228 0.0 0.0 0.00 0.00 0.00 52 1001.2
20191013210719 67 224 0.0 0.0 0.00 0.00 0.00 53 1001.3
20191013210219 67 304 0.0 0.0 0.00 0.00 0.00 54 1001.2
20191013205719 66 233 0.0 0.0 0.00 0.00 0.00 55 1001.2
20191013205219 66 256 0.0 0.0 0.00 0.00 0.00 55 1001.4
20191013204720 66 255 0.0 0.0 0.00 0.00 0.00 55 1001.4
20191013204218 66 288 0.0 0.0 0.00 0.00 0.00 56 1001.5
20191013203718 65 271 0.0 0.0 0.00 0.00 0.00 56 1001.5
20191013203215 66 286 0.0 0.0 0.00 0.00 0.00 56 1001.5
20191013202715 66 293 0.0 0.0 0.00 0.00 0.00 56 1001.4
20191013202215 66 282 0.0 0.0 0.00 0.00 0.00 57 1001.6
20191013201715 65 345 0.0 0.0 0.00 0.00 0.00 55 1001.6
20191013201214 65 261 0.0 0.0 0.00 0.00 0.00 56 1001.5
20191013200715 65 311 0.0 0.0 0.00 0.00 0.00 55 1001.6
20191013200218 65 257 0.0 0.0 0.00 0.00 0.00 53 1001.5
20191013195715 65 278 0.0 0.0 0.00 0.00 0.00 55 1001.6
20191013195216 65 335 0.0 0.0 0.00 0.00 0.00 56 1001.8
20191013194714 65 304 0.0 0.0 0.00 0.00 0.00 56 1001.9
20191013194213 65 292 0.0 0.0 0.00 0.00 0.00 55 1002.0
20191013193714 65 53 0.0 0.0 0.00 0.00 0.00 55 1002.1
20191013193213 65 331 0.0 0.0 0.00 0.00 0.00 54 1002.1
20191013192713 65 25 0.0 0.0 0.00 0.00 0.00 56 1002.3
20191013192213 65 330 0.0 0.0 0.00 0.00 0.00 56 1002.3
20191013191713 65 30 0.0 0.0 0.00 0.00 0.00 56 1002.4
20191013191213 65 64 0.0 0.0 0.00 0.00 0.00 59 1002.5
20191013190710 65 39 0.0 0.0 0.00 0.00 0.00 58 1002.6
20191013190211 65 39 0.0 0.0 0.00 0.00 0.00 58 1002.7
20191013185711 64 25 0.0 0.0 0.00 0.00 0.00 58 1002.7
20191013185210 64 39 0.0 0.0 0.00 0.00 0.00 58 1002.7
20191013184712 65 321 0.0 0.0 0.00 0.00 0.00 58 1002.8
20191013184214 65 72 0.0 0.0 0.00 0.00 0.00 58 1002.7
20191013183711 64 330 0.0 0.0 0.00 0.00 0.00 56 1002.6
20191013183211 64 17 0.0 0.0 0.00 0.00 0.00 59 1002.7
20191013182711 64 309 0.0 0.0 0.00 0.00 0.00 59 1002.7
20191013182211 64 308 0.0 0.0 0.00 0.00 0.00 59 1002.7
20191013181711 64 295 0.0 0.0 0.00 0.00 0.00 60 1002.8
20191013181211 63 18 0.0 0.0 0.00 0.00 0.00 65 1002.9
20191013180710 63 285 0.0 0.0 0.00 0.00 0.00 64 1002.9
20191013180211 62 300 0.0 0.0 0.00 0.00 0.00 64 1003.0
20191013175711 62 308 0.0 0.0 0.00 0.00 0.00 64 1003.3
20191013175211 62 265 0.0 0.0 0.00 0.00 0.00 63 1003.3
20191013174711 62 240 0.0 0.0 0.00 0.00 0.00 63 1003.3
20191013174212 62 316 0.0 0.0 0.00 0.00 0.00 63 1003.3
20191013173711 62 287 0.0 0.0 0.00 0.00 0.00 66 1003.5
20191013173211 61 314 0.0 0.0 0.00 0.00 0.00 65 1003.7
20191013172710 61 314 0.0 0.0 0.00 0.00 0.00 66 1003.7
20191013172208 61 26 0.0 0.0 0.00 0.00 0.00 69 1003.8
20191013171709 61 304 0.0 0.0 0.00 0.00 0.00 70 1003.9
20191013171209 61 238 0.0 0.0 0.00 0.00 0.00 70 1003.9
20191013170707 60 214 0.0 0.0 0.00 0.00 0.00 71 1004.0
20191013170206 60 250 0.0 0.0 0.00 0.00 0.00 72 1004.0
20191013165705 60 210 0.0 0.0 0.00 0.00 0.00 72 1003.9
20191013165205 60 259 0.0 0.0 0.00 0.00 0.00 71 1004.2
20191013164702 59 250 0.0 0.0 0.00 0.00 0.00 73 1004.2
20191013164203 59 250 0.0 0.0 0.00 0.00 0.00 73 1004.2
20191013163702 59 264 0.0 0.0 0.00 0.00 0.00 74 1004.2
20191013163201 59 264 0.0 0.0 0.00 0.00 0.00 77 1004.2
20191013162700 58 276 0.0 0.0 0.00 0.00 0.00 77 1004.0
20191013162200 58 260 0.0 0.0 0.00 0.00 0.00 78 1004.0
20191013161700 58 304 0.0 0.0 0.00 0.00 0.00 77 1004.0
20191013161201 58 306 0.0 0.0 0.00 0.00 0.00 78 1004.1
20191013160701 58 265 0.0 0.0 0.00 0.00 0.00 78 1004.2
20191013160201 58 7 0.0 0.0 0.00 0.00 0.00 79 1004.3
20191013155701 58 280 0.0 0.0 0.00 0.00 0.00 77 1004.3
20191013155202 57 304 0.0 0.0 0.00 0.00 0.00 79 1004.4
20191013154701 57 252 0.0 0.0 0.00 0.00 0.00 80 1004.2
20191013154201 57 302 0.0 0.0 0.00 0.00 0.00 82 1004.1
20191013153700 57 271 0.0 0.0 0.00 0.00 0.00 84 1004.0
20191013153201 56 252 0.0 0.0 0.00 0.00 0.00 85 1003.9
20191013152702 56 318 0.0 0.0 0.00 0.00 0.00 86 1004.0
20191013152159 56 281 0.0 0.0 0.00 0.00 0.00 85 1004.0
20191013151659 56 290 0.0 0.0 0.00 0.00 0.00 87 1004.1
20191013151159 56 291 0.0 0.0 0.00 0.00 0.00 87 1004.2
20191013150659 56 304 0.0 0.0 0.00 0.00 0.00 88 1004.4
20191013150158 56 354 0.0 0.0 0.00 0.00 0.00 88 1004.3
20191013145659 56 312 0.0 0.0 0.00 0.00 0.00 86 1004.3
20191013145158 55 34 0.0 0.0 0.00 0.00 0.00 86 1004.4
20191013144659 55 34 0.0 0.0 0.00 0.00 0.00 87 1004.5
20191013144159 55 311 0.0 0.0 0.00 0.00 0.00 88 1004.4
20191013143658 55 281 0.0 0.0 0.00 0.00 0.00 88 1004.2
20191013143158 55 155 0.0 0.0 0.00 0.00 0.00 88 1004.2
20191013142659 55 155 0.0 0.0 0.00 0.00 0.00 88 1004.2
20191013142155 55 116 0.0 0.0 0.00 0.00 0.00 89 1004.1
20191013141654 54 116 0.0 0.0 0.00 0.00 0.00 88 1004.0
20191013141152 54 108 0.0 0.0 0.00 0.00 0.00 89 1004.0
20191013140651 54 108 0.0 0.0 0.00 0.00 0.00 89 1004.0
20191013140151 53 108 0.0 0.0 0.00 0.00 0.00 90 1003.9
20191013135651 53 108 0.0 0.0 0.00 0.00 0.00 90 1003.9
20191013135153 0 0.0 0.0 0.00 0.00 0.00 1003.9
20191013134651 0 0.0 0.0 0.00 0.00 0.00 1004.0
20191013134149 0 0.0 0.0 0.00 0.00 0.00 1004.1
20191013133644 0 0.0 0.0 0.00 0.00 0.00 1004.0
20191013133050 0 0.0 0.0 0.00 0.00 0.00 1003.9
20191013132543 0 0.0 0.0 0.00 0.00 0.00 1003.8
20191013131955 0 0.0 0.0 0.00 0.00 0.00 1003.7
20191013131451 0 0.0 0.0 0.00 0.00 0.00 1003.3
20191013130951 0 0.0 0.0 0.00 0.00 0.00 1003.1
20191013130448 0 0.0 0.0 0.00 0.00 0.00 1003.0
20191013125952 0 0.0 0.0 0.00 0.00 0.00 1003.1
20191013125445 0 0.0 0.0 0.00 0.00 0.00 1003.0
20191013124851 0 0.0 0.0 0.00 0.00 0.00 1003.0
20191013124350 0 0.0 0.0 0.00 0.00 0.00 1003.2
20191013123852 0 0.0 0.0 0.00 0.00 0.00 1003.5
20191013123346 0 0.0 0.0 0.00 0.00 0.00 1003.6
20191013122840 0 0.0 0.0 0.00 0.00 0.00 1003.4
20191013122247 0 0.0 0.0 0.00 0.00 0.00 1003.3
20191013121649 0 0.0 0.0 0.00 0.00 0.00 1003.2
20191013121152 0 0.0 0.0 0.00 0.00 0.00 1003.3
20191013120647 0 0.0 0.0 0.00 0.00 0.00 1003.4
20191013120144 0 0.0 0.0 0.00 0.00 0.00 1003.3
20191013115644 0 0.0 0.0 0.00 0.00 0.00 1003.4
20191013115053 0 0.0 0.0 0.00 0.00 0.00 1003.3
20191013114544 0 0.0 0.0 0.00 0.00 0.00 1003.1
20191013114039 0 0.0 0.0 0.00 0.00 0.00 1002.8
20191013113450 0 0.0 0.0 0.00 0.00 0.00 1002.9
20191013112952 0 0.0 0.0 0.00 0.00 0.00 1002.9
20191013112447 0 0.0 0.0 0.00 0.00 0.00 1002.9
20191013111946 0 0.0 0.0 0.00 0.00 0.00 1002.9
20191013111442 0 0.0 0.0 0.00 0.00 0.00 1002.8
20191013110850 0 0.0 0.0 0.00 0.00 0.00 1002.6
20191013110342 0 0.0 0.0 0.00 0.00 0.00 1002.4
20191013105749 0 0.0 0.0 0.00 0.00 0.00 1002.3
20191013105242 0 0.0 0.0 0.00 0.00 0.00 1002.4
20191013104653 0 0.0 0.0 0.00 0.00 0.00 1002.5
20191013104145 0 0.0 0.0 0.00 0.00 0.00 1002.5
20191013103549 0 0.0 0.0 0.00 0.00 0.00 1002.4
20191013103053 0 0.0 0.0 0.00 0.00 0.00 1002.4
20191013102553 0 0.0 0.0 0.00 0.00 0.00 1002.4
20191013102047 53 302 0.0 0.0 0.00 0.00 0.00 91 1002.4
20191013101548 53 302 0.0 0.0 0.00 0.00 0.00 91 1002.3
20191013100956 53 302 0.0 0.0 0.00 0.00 0.00 91 1002.4
20191013100444 53 302 0.0 0.0 0.00 0.00 0.00 91 1002.5
20191013095851 53 302 0.0 0.0 0.00 0.00 0.00 91 1002.4
20191013095340 53 302 0.0 0.0 0.00 0.00 0.00 91 1002.4
20191013094749 53 302 0.0 0.0 0.00 0.00 0.00 91 1002.5
20191013094253 53 302 0.0 0.0 0.00 0.00 0.00 91 1002.5
20191013093751 53 302 0.0 0.0 0.00 0.00 0.00 91 1002.8
20191013093249 53 302 0.0 0.0 0.00 0.00 0.00 91 1002.8
20191013092751 53 302 0.0 0.0 0.00 0.00 0.00 91 1002.7
20191013092241 53 302 0.0 0.0 0.00 0.00 0.00 91 1002.5
20191013091740 53 302 0.0 0.0 0.00 0.00 0.00 91 1002.5
20191013091239 53 302 0.0 0.0 0.00 0.00 0.00 91 1002.3
20191013090738 53 91 0.0 0.0 0.00 0.00 0.00 88 1002.4
20191013090239 53 92 0.0 0.0 0.00 0.00 0.00 88 1002.6
20191013085738 53 92 0.0 0.0 0.00 0.00 0.00 87 1002.6
20191013085236 53 92 0.0 0.0 0.00 0.00 0.00 87 1002.8
20191013084738 53 92 0.0 0.0 0.00 0.00 0.00 87 1002.9
20191013084235 52 92 0.0 0.0 0.00 0.00 0.00 87 1002.8
20191013083735 52 92 0.0 0.0 0.00 0.00 0.00 88 1003.0
20191013083235 52 92 0.0 0.0 0.00 0.00 0.00 88 1002.9
20191013082734 52 92 0.0 0.0 0.00 0.00 0.00 88 1003.0
20191013082233 52 92 0.0 0.0 0.00 0.00 0.00 88 1002.8
20191013081734 52 92 0.0 0.0 0.00 0.00 0.00 88 1002.9
20191013081234 52 92 0.0 0.0 0.00 0.00 0.00 88 1002.9
20191013080734 52 92 0.0 0.0 0.00 0.00 0.00 87 1002.6
20191013080234 52 92 0.0 0.0 0.00 0.00 0.00 86 1002.8
20191013075735 52 92 0.0 0.0 0.00 0.00 0.00 86 1002.8
20191013075233 52 92 0.0 0.0 0.00 0.00 0.00 86 1002.7
20191013074732 51 92 0.0 0.0 0.00 0.00 0.00 86 1002.6
20191013074233 51 92 0.0 0.0 0.00 0.00 0.00 86 1002.8
20191013073732 51 92 0.0 0.0 0.00 0.00 0.00 88 1003.0
20191013073230 51 92 0.0 0.0 0.00 0.00 0.00 86 1003.0
20191013072730 51 92 0.0 0.0 0.00 0.00 0.00 87 1002.9
20191013072228 51 92 0.0 0.0 0.00 0.00 0.00 86 1003.1
20191013071731 51 92 0.0 0.0 0.00 0.00 0.00 86 1003.1
20191013071228 51 92 0.0 0.0 0.00 0.00 0.00 87 1003.0
20191013070728 51 92 0.0 0.0 0.00 0.00 0.00 87 1002.9
20191013070225 51 92 0.0 0.0 0.00 0.00 0.00 86 1003.1
20191013065724 51 92 0.0 0.0 0.00 0.00 0.00 86 1002.9
20191013065225 51 92 0.0 0.0 0.00 0.00 0.00 85 1002.8
20191013064724 51 92 0.0 0.0 0.00 0.00 0.00 86 1002.8
20191013064225 51 92 0.0 0.0 0.00 0.00 0.00 87 1002.8
20191013063724 51 92 0.0 0.0 0.00 0.00 0.00 87 1002.9
20191013063225 51 92 0.0 0.0 0.00 0.00 0.00 88 1002.8
20191013062723 51 92 0.0 0.0 0.00 0.00 0.00 87 1002.7
20191013062224 51 92 0.0 0.0 0.00 0.00 0.00 88 1002.7
20191013061723 51 92 0.0 0.0 0.00 0.00 0.00 89 1002.7
20191013061222 51 92 0.0 0.0 0.00 0.00 0.00 89 1003.0
20191013060722 51 92 0.0 0.0 0.00 0.00 0.00 89 1002.7
20191013060222 51 92 0.0 0.0 0.00 0.00 0.00 89 1002.7
20191013055722 51 92 0.0 0.0 0.00 0.00 0.00 89 1002.6
20191013055222 50 92 0.0 0.0 0.00 0.00 0.00 89 1002.5
20191013054720 50 92 0.0 0.0 0.00 0.00 0.00 89 1002.4
20191013054218 50 92 0.0 0.0 0.00 0.00 0.00 89 1002.4
20191013053718 50 92 0.0 0.0 0.00 0.00 0.00 90 1002.4
20191013053219 50 92 0.0 0.0 0.00 0.00 0.00 89 1002.5
20191013052719 50 92 0.0 0.0 0.00 0.00 0.00 88 1002.5
20191013052218 50 92 0.0 0.0 0.00 0.00 0.00 90 1002.4
20191013051718 50 92 0.0 0.0 0.00 0.00 0.00 90 1002.3
20191013051218 50 101 0.0 0.0 0.00 0.00 0.00 90 1002.3
20191013050719 50 101 0.0 0.0 0.00 0.00 0.00 90 1002.3
20191013050217 50 101 0.0 0.0 0.00 0.00 0.00 90 1002.5
20191013045718 50 101 0.0 0.0 0.00 0.00 0.00 89 1002.4
20191013045217 50 101 0.0 0.0 0.00 0.00 0.00 89 1002.4
20191013044716 50 102 0.0 0.0 0.00 0.00 0.00 89 1002.4
20191013044217 50 102 0.0 0.0 0.00 0.00 0.00 89 1002.4
20191013043716 50 102 0.0 0.0 0.00 0.00 0.00 89 1002.4
20191013043218 50 102 0.0 0.0 0.00 0.00 0.00 88 1002.4
20191013042715 50 102 0.0 0.0 0.00 0.00 0.00 89 1002.4
20191013042214 50 102 0.0 0.0 0.00 0.00 0.00 88 1002.3
20191013041715 50 102 0.0 0.0 0.00 0.00 0.00 88 1002.4
20191013041214 50 102 0.0 0.0 0.00 0.00 0.00 89 1002.4
20191013040713 50 102 0.0 0.0 0.00 0.00 0.00 89 1002.4
20191013040214 51 102 0.0 0.0 0.00 0.00 0.00 88 1002.4
20191013035714 51 102 0.0 0.0 0.00 0.00 0.00 88 1002.4
20191013035216 51 102 0.0 0.0 0.00 0.00 0.00 88 1002.5
20191013034714 51 102 0.0 0.0 0.00 0.00 0.00 87 1002.5
20191013034214 51 102 0.0 0.0 0.00 0.00 0.00 87 1002.6
20191013033714 51 102 0.0 0.0 0.00 0.00 0.00 86 1002.8
20191013033214 51 102 0.0 0.0 0.00 0.00 0.00 86 1002.8
20191013032713 51 102 0.0 0.0 0.00 0.00 0.00 84 1002.8
20191013032213 51 102 0.0 0.0 0.00 0.00 0.00 84 1002.9
20191013031714 51 102 0.0 0.0 0.00 0.00 0.00 85 1002.9
20191013031212 51 102 0.0 0.0 0.00 0.00 0.00 85 1003.0
20191013030714 51 102 0.0 0.0 0.00 0.00 0.00 85 1003.0
20191013030211 52 102 0.0 0.0 0.00 0.00 0.00 84 1003.1
20191013025710 52 102 0.0 0.0 0.00 0.00 0.00 84 1003.3
20191013025211 52 102 0.0 0.0 0.00 0.00 0.00 84 1003.3
20191013024710 52 102 0.0 0.0 0.00 0.00 0.00 84 1003.3
20191013024208 52 102 0.0 0.0 0.00 0.00 0.00 84 1003.3
20191013023708 52 102 0.0 0.0 0.00 0.00 0.00 84 1003.3
20191013023207 52 102 0.0 0.0 0.00 0.00 0.00 84 1003.3
20191013022706 52 102 0.0 0.0 0.00 0.00 0.00 84 1003.2
20191013022204 52 102 0.0 0.0 0.00 0.00 0.00 83 1003.3
20191013021704 52 102 0.0 0.0 0.00 0.00 0.00 83 1003.3
20191013021203 53 102 0.0 0.0 0.00 0.00 0.00 83 1003.3
20191013020704 53 102 0.0 0.0 0.00 0.00 0.00 82 1003.3
20191013020202 53 102 0.0 0.0 0.00 0.00 0.00 81 1003.3
20191013015701 53 102 0.0 0.0 0.00 0.00 0.00 81 1003.5
20191013015203 53 102 0.0 0.0 0.00 0.00 0.00 79 1003.5
20191013014702 53 102 0.0 0.0 0.00 0.00 0.00 79 1003.5
20191013014202 54 102 0.0 0.0 0.00 0.00 0.00 78 1003.4
20191013013702 54 102 0.0 0.0 0.00 0.00 0.00 77 1003.4
20191013013203 54 102 0.0 0.0 0.00 0.00 0.00 77 1003.5
20191013012702 54 102 0.0 0.0 0.00 0.00 0.00 75 1003.4
20191013012202 54 102 0.0 0.0 0.00 0.00 0.00 73 1003.4
20191013011702 55 102 0.0 0.0 0.00 0.00 0.00 71 1003.5
20191013011202 55 102 0.0 0.0 0.00 0.00 0.00 71 1003.5
20191013010702 55 102 0.0 0.0 0.00 0.00 0.00 71 1003.5
20191013010202 55 102 0.0 0.0 0.00 0.00 0.00 70 1003.6
20191013005702 56 102 0.0 0.0 0.00 0.00 0.00 68 1003.7
20191013005203 56 102 0.0 0.0 0.00 0.00 0.00 71 1003.6
20191013004702 56 102 0.0 0.0 0.00 0.00 0.00 70 1003.5
20191013004202 56 356 0.0 0.0 0.00 0.00 0.00 69 1003.5
20191013003703 56 355 0.0 0.0 0.00 0.00 0.00 68 1003.5
20191013003202 56 356 0.0 0.0 0.00 0.00 0.00 67 1003.5
20191013002702 57 356 0.0 0.0 0.00 0.00 0.00 67 1003.6
20191013002201 57 355 0.0 0.0 0.00 0.00 0.00 65 1003.7
20191013001701 58 328 0.0 0.0 0.00 0.00 0.00 63 1003.7
20191013001202 58 314 0.0 0.0 0.00 0.00 0.00 63 1003.7
20191013000702 59 314 0.0 0.0 0.00 0.00 0.00 57 1003.7
20191013000158 59 314 0.0 0.0 0.00 0.00 0.00 57 1003.6
20191012235658 60 314 0.0 0.0 0.00 0.00 0.00 58 1003.7
20191012235157 61 314 0.0 0.0 0.00 0.00 0.00 54 1003.9
20191012234656 61 314 0.0 0.0 0.00 0.00 0.00 52 1003.9
20191012234155 61 314 0.0 0.0 0.00 0.00 0.00 50 1003.8
20191012233654 62 314 0.0 0.0 0.00 0.00 0.00 49 1003.7
20191012233151 62 314 0.0 0.0 0.00 0.00 0.00 49 1003.4
20191012232651 62 252 0.0 0.0 0.00 0.00 0.00 48 1003.4
20191012232152 62 252 0.0 0.0 0.00 0.00 0.00 46 1003.6
20191012231652 62 231 0.0 0.0 0.00 0.00 0.00 44 1003.7
20191012231152 63 224 0.0 0.0 0.00 0.00 0.00 44 1003.8
20191012230651 63 193 0.0 0.0 0.00 0.00 0.00 44 1003.9
20191012230150 63 179 0.0 0.0 0.00 0.00 0.00 44 1004.0
20191012225649 63 160 0.0 0.0 0.00 0.00 0.00 43 1004.1
20191012225150 63 211 0.0 0.0 0.00 0.00 0.00 42 1004.2
20191012224650 63 217 0.0 0.0 0.00 0.00 0.00 43 1004.2
20191012224152 62 201 0.0 0.0 0.00 0.00 0.00 43 1004.2
20191012223650 62 201 0.0 0.0 0.00 0.00 0.00 44 1004.2
20191012223150 63 236 0.0 0.0 0.00 0.00 0.00 45 1004.2
20191012222650 63 176 0.0 0.0 0.00 0.00 0.00 45 1004.2
20191012222149 63 207 0.0 0.0 0.00 0.00 0.00 44 1004.1
20191012221650 63 252 0.0 0.0 0.00 0.00 0.00 44 1004.1
20191012221149 63 250 0.0 0.0 0.00 0.00 0.00 43 1004.1
20191012220649 63 211 0.0 0.0 0.00 0.00 0.00 44 1004.2
20191012220149 63 229 0.0 0.0 0.00 0.00 0.00 42 1004.3
20191012215648 63 258 0.0 0.0 0.00 0.00 0.00 44 1004.3
20191012215147 63 266 0.0 4.0 0.00 0.00 0.00 43 1004.5
20191012214648 63 278 0.0 4.0 0.00 0.00 0.00 44 1004.6
20191012214147 63 304 0.0 0.0 0.00 0.00 0.00 43 1004.7
20191012213649 63 303 0.0 0.0 0.00 0.00 0.00 43 1004.6
20191012213148 63 321 0.0 0.0 0.00 0.00 0.00 43 1004.6
20191012212645 63 326 0.0 0.0 0.00 0.00 0.00 42 1004.7
20191012212145 62 124 0.0 0.0 0.00 0.00 0.00 43 1004.7